Weather History for KMHK - October, 2012

Change the Weather History Date:

Tuesday, October 9, 2012

  Actual Average Record
Temperature  
Mean Temperature 49 °F 58 °F  
Max Temperature 64 °F 71 °F 84 °F (2007)
Min Temperature 34 °F 45 °F 19 °F (2000)
Degree Days  
Heating Degree Days 16 8  
Month to date heating degree days 117 65  
Since 1 July heating degree days 199 135  
Cooling Degree Days 0 1  
Month to date cooling degree days 0 16  
Year to date cooling degree days 1764 1353  
Moisture  
Dew Point 36 °F    
Average Humidity 54    
Maximum Humidity 75    
Minimum Humidity 32    
Precipitation  
Precipitation 0.00 in 0.06 in 0.64 in (2014)
Month to date precipitation T 0.73  
Year to date precipitation 20.21 28.44  
Sea Level Pressure  
Sea Level Pressure 29.97 in    
Wind  
Wind Speed 7 mph (West)    
Max Wind Speed 21 mph    
Max Gust Speed 29 mph    
Visibility 10 miles    
Events      
T = Trace of Precipitation, MM = Missing Value Source: NWS Daily Summary

Daily Weather History Graph

Daily Weather History Graph

Search for Another Location

Airport or City:

Trip Planner

Search our weather history database for the weather conditions in past years. The results will help you decide how hot, cold, wet, or windy it might be!

Date:

Astronomy

Oct. 09, 2012 Rise Set
Actual Time 7:30 AM CDT 6:56 PM CDT
Civil Twilight 7:04 AM CDT 7:22 PM CDT
Nautical Twilight 6:33 AM CDT 7:53 PM CDT
Astronomical Twilight 6:02 AM CDT 8:24 PM CDT
Moon 1:11 AM CDT (10/9) 3:21 PM CDT (10/9)
Length of Visible Light 12h 18m
Length of Day
11h 25m
Last Quarter, 36% of the Moon is Illuminated
Oct 9
Last Quarter
Oct 15
New
Oct 21
First Quarter
Oct 29
Full
Nov 6
Last Quarter

Hourly Weather History & Observations

Time (CDT) Temp. Windchill Dew Point Humidity Pressure Visibility Wind Dir Wind Speed Gust Speed Precip Events Conditions
12:52 AM 54.0 °F - 36.0 °F 51% 29.89 in 10.0 mi SW 13.8 mph - N/A   Clear
1:52 AM 54.0 °F - 36.0 °F 51% 29.89 in 10.0 mi SSW 11.5 mph 20.7 mph N/A   Clear
2:52 AM 51.8 °F - 35.6 °F 54% 29.89 in 10.0 mi SSW 9.2 mph - N/A   Clear
3:52 AM 50.0 °F - 37.0 °F 61% 29.87 in 10.0 mi SSW 8.1 mph - N/A   Clear
4:52 AM 50.0 °F - 37.0 °F 61% 29.86 in 10.0 mi SW 6.9 mph - N/A   Clear
5:52 AM 48.2 °F - 37.4 °F 66% 29.87 in 10.0 mi SSW 6.9 mph - N/A   Clear
6:52 AM 45.0 °F - 36.0 °F 71% 29.86 in 10.0 mi Calm Calm - N/A   Clear
7:52 AM 48.0 °F - 37.0 °F 66% 29.86 in 10.0 mi SW 4.6 mph - N/A   Clear
8:52 AM 51.8 °F - 39.2 °F 62% 29.89 in 10.0 mi SW 5.8 mph - N/A   Clear
9:52 AM 55.0 °F - 39.9 °F 57% 29.91 in 10.0 mi WSW 10.4 mph - N/A   Clear
10:52 AM 60.1 °F - 42.1 °F 51% 29.91 in 10.0 mi SW 12.7 mph - N/A   Clear
11:52 AM 63.0 °F - 42.1 °F 46% 29.92 in 10.0 mi West 9.2 mph - N/A   Clear
12:52 PM 63.0 °F - 39.9 °F 43% 29.92 in 10.0 mi NNE 9.2 mph 17.3 mph N/A   Clear
1:52 PM 63.0 °F - 39.9 °F 43% 29.93 in 10.0 mi NNE 12.7 mph 21.9 mph N/A   Clear
2:52 PM 62.1 °F - 42.1 °F 48% 29.96 in 10.0 mi NNE 16.1 mph 28.8 mph N/A   Overcast
3:52 PM 60.1 °F - 42.1 °F 51% 29.99 in 10.0 mi NNE 13.8 mph 21.9 mph N/A   Overcast
4:52 PM 60.1 °F - 39.0 °F 46% 30.00 in 10.0 mi NNE 13.8 mph 21.9 mph N/A   Overcast
5:52 PM 61.0 °F - 37.0 °F 41% 30.02 in 10.0 mi North 8.1 mph - N/A   Partly Cloudy
6:52 PM 57.9 °F - 28.0 °F 32% 30.04 in 10.0 mi North 5.8 mph - N/A   Clear
7:52 PM 53.1 °F - 25.0 °F 34% 30.09 in 10.0 mi NNW 3.5 mph - N/A   Clear
8:52 PM 45.0 °F - 27.0 °F 49% 30.12 in 10.0 mi Calm Calm - N/A   Clear
9:52 PM 41.0 °F - 28.0 °F 60% 30.14 in 10.0 mi Calm Calm - N/A   Clear
10:52 PM 37.0 °F - 28.0 °F 70% 30.16 in 10.0 mi Calm Calm - N/A   Clear
11:52 PM 34.0 °F 29.8 °F 27.0 °F 75% 30.17 in 10.0 mi SW 4.6 mph - N/A   Clear